STARLINK-31895, 59849

Orbit data source: Space-Track

STARLINK-31895, 59849 is a payload satellite owned by SpaceX/Seattle (US) in LEO that was launched on Thu, 23 May 2024 UTC via an FALCON 9 launch vehicle from the Air Force Eastern Test Range (AFETR). Payload-class satellites include a variety of spacecraft equipped with specific instruments for various scientific and technological missions. These include communications satellites like Starlink; space stations such as the ISS; scientific satellites like the Hubble; Earth observation satellites from companies like Planet Labs, Umbra, and HawkEye 360; GPS; miniature CubeSats for education and research; and military/defense satellites.

Loading next visibility...
Identifier
59849, 2024-097Q
Orbit
LEO
Country
Flag of USUS
Related business
Manufacturer
SpaceX/Seattle
Mission
Operational Commercial Communications
Bus & Motor
STARLINK V2M, Unknown motor
Mass
730 kg wet, ~700 kg dry
Launch date (UTC)
2024-05-23 (2 years ago)
Launch vehicle
FALCON 9
Launch site
Air Force Eastern Test Range (AFETR)
Object type
Payload
Rocket body
Debris
Shape & HBR
Box + 2 Pan, 17.7 m
Radar Cross Section
33.884 m², Large (>1 m²)

Expand to show TLE details & history
Last TLE update: 2 days ago

TLE from 2 days ago
0 STARLINK-31895
1 59849U 24097Q   26171.05515586  .00005353  00000-0  20387-3 0  9998
2 59849  43.0038  56.1378 0001428 268.5514  91.5175 15.27587787117577
Epoch: 2026-06-20T01:19Z
TLE epoch observation values (Epoch: 2026-06-20T01:19:25.466Z)
Latitude
0.00005°
Longitude
128.00647°
Altitude
482.828 km
Speed
7.626 km/s
True Right ascension
03h 44m 33s
True Declination
0° 00' 00"
Sunlit
Object was in daylight at epoch
Visualization orbit readout
Latitude
Unknown
Longitude
Unknown
Altitude
Unknown
Speed
Unknown
Apparent Right ascension
Unknown
Apparent Declination
Unknown
Sunlit
N/A
Visualization observer readout
Local Sidereal Time
21:29:00
Azimuth
Unknown
Elevation
Unknown
Doppler factor
Unknown
Orbital elements
Apogee altitude
485.95 km
Perigee altitude
483.99 km
Semi-major axis
6,863.107 km
Eccentricity
0.00014
Inclination
43.0038°
RAAN
56.1378°
Arg. of periapsis
268.5514°
True anomaly
91.53386°
Mean anomaly
91.5175°
Eccentric anomaly
91.52568°
Mean motion
3.81735 °/min
Orbital period
94.31 mins
BSTAR
0.00020387
Loading maneuver chart data...
Computing Atmospheric mass density...
Loading historical data...
Loading historical data...
Loading historical data...
Loading historical data...
Loading historical data...
Loading historical data...
Loading historical data...

Documentation

Showing up to 5 results
|